Regional Weather Roundup
Issued by NWS

Home | Current Version | Previous Version | Text Only | Print | Product List | Glossary On
Versions: 1 2 3 4 5 6 7 8 9 10 11 12 13 14 15 16 17 18 19 20 21 22 23 24 25 26 27 28 29 30 31 32 33 34 35 36 37 38 39 40 41 42 43 44 45 46 47 48 49 50
000
ASUS44 KMEG 310900
RWRTN
TENNESSEE HOURLY STATE WEATHER ROUNDUP
NATIONAL WEATHER SERVICE MEMPHIS TN
400 AM CDT MON AUG 31 2015

TNZ002-004-019-021-049-052-054-088>092-311000-
WEST TENNESSEE

CITY           SKY/WX    TMP DP  RH WIND       PRES   REMARKS
MEMPHIS INTL   CLEAR     73  67  81 SE7       30.03S
NWS MEMPHIS      N/A     70 N/A N/A MISG        N/A
JACKSON        CLEAR     67  65  93 CALM      30.05S
DYERSBURG      CLEAR    N/A N/A N/A MISG        N/A
PARIS          CLEAR     66  66 100 SE3       30.07R
$$

TNZ008-025-027-028-033-062-065-066-311000-
NORTH MIDDLE TENNESSEE

CITY           SKY/WX    TMP DP  RH WIND       PRES   REMARKS
NASHVILLE      CLEAR     67  64  90 S3        30.08F
CLARKSVILLE    FOG       64  63  96 CALM      30.07R VSB 1/2
COOKEVILLE     CLOUDY    64  64 100 CALM      30.09S VSB 1/4
CROSSVILLE     CLEAR     64  61  90 CALM      30.14S
$$

TNZ061-075-076-078-094-096-097-311000-
SOUTH MIDDLE TENNESSEE

CITY           SKY/WX    TMP DP  RH WIND       PRES   REMARKS
FAYETTEVILLE   CLEAR     63  63 100 E3        30.08S
TULLAHOMA      CLOUDY    63  63 100 CALM      30.11S VSB 1/2
COLUMBIA       CLEAR    N/A N/A N/A CALM      30.07S
SHELBYVILLE    CLEAR     64  64 100 CALM      30.09S
$$

TNZ017-018-042-046-047-311000-
NORTHEAST TENNESSEE

CITY           SKY/WX    TMP DP  RH WIND       PRES   REMARKS
TRI CITIES     LGT RAIN  66  64  93 SW3       30.15R
ELIZABETHTON   LGT RAIN  63  63 100 CALM      30.16R FOG
$$

TNZ012-013-036-069-073-074-311000-
CENTRAL EAST TENNESSEE

CITY           SKY/WX    TMP DP  RH WIND       PRES   REMARKS
KNOXVILLE      PTCLDY    66  65  96 CALM      30.10R
OAK RIDGE      PTCLDY    67  64  90 CALM      30.12R
GATLINBURG     SUNNY     63  61  94 CALM      30.11S
$$

TNZ083-085-099-311000-
SOUTHEAST TENNESSEE

CITY           SKY/WX    TMP DP  RH WIND       PRES   REMARKS
CHATTANOOGA    CLOUDY    69  65  86 CALM      30.09S
$$

SKY/WX REPORTED AS FAIR MEANS FEW OR NO CLOUDS BELOW
12 THOUSAND FEET.



USA.gov is the U.S. government's official web portal to all federal, state and local government web resources and services.